Year,Month,Day,Hour,Minute,Value (Times are PST for windspeed in km/hr)
2008,04,21,00,00,0.00
2008,04,21,00,01,0.10
2008,04,21,00,02,0.00
2008,04,21,00,03,0.00
2008,04,21,00,04,0.00
2008,04,21,00,05,0.00
2008,04,21,00,06,0.00
2008,04,21,00,07,0.00
2008,04,21,00,08,0.00
2008,04,21,00,09,0.50
2008,04,21,00,10,4.10
2008,04,21,00,11,2.90
2008,04,21,00,12,0.00
2008,04,21,00,13,0.00
2008,04,21,00,14,0.10
2008,04,21,00,15,0.20
2008,04,21,00,16,3.80
2008,04,21,00,17,4.00
2008,04,21,00,18,0.80
2008,04,21,00,19,4.10
2008,04,21,00,20,3.20
2008,04,21,00,21,5.20
2008,04,21,00,22,4.00
2008,04,21,00,23,4.00
2008,04,21,00,24,4.00
2008,04,21,00,25,3.20
2008,04,21,00,26,1.50
2008,04,21,00,27,5.10
2008,04,21,00,28,2.20
2008,04,21,00,29,3.50
2008,04,21,00,30,2.20
2008,04,21,00,31,0.20
2008,04,21,00,32,4.10
2008,04,21,00,33,6.40
2008,04,21,00,34,4.10
2008,04,21,00,35,3.10
2008,04,21,00,36,3.10
2008,04,21,00,37,6.30
2008,04,21,00,38,7.50
2008,04,21,00,39,1.60
2008,04,21,00,40,0.00
2008,04,21,00,41,0.90
2008,04,21,00,42,0.10
2008,04,21,00,43,0.90
2008,04,21,00,44,2.80
2008,04,21,00,45,1.50
2008,04,21,00,46,4.30
2008,04,21,00,47,2.60
2008,04,21,00,48,5.40
2008,04,21,00,49,3.50
2008,04,21,00,50,5.20
2008,04,21,00,51,3.50
2008,04,21,00,52,1.70
2008,04,21,00,53,1.30
2008,04,21,00,54,1.60
2008,04,21,00,55,3.50
2008,04,21,00,56,9.40
2008,04,21,00,57,9.10
2008,04,21,00,58,2.20
2008,04,21,00,59,9.80
2008,04,21,01,00,10.80
2008,04,21,01,01,9.40
2008,04,21,01,02,6.60
2008,04,21,01,03,5.80
2008,04,21,01,04,4.80
2008,04,21,01,05,5.20
2008,04,21,01,06,5.60
2008,04,21,01,07,11.00
2008,04,21,01,08,12.80
2008,04,21,01,09,6.00
2008,04,21,01,10,2.70
2008,04,21,01,11,2.60
2008,04,21,01,12,4.30
2008,04,21,01,13,4.90
2008,04,21,01,14,4.00
2008,04,21,01,15,5.20
2008,04,21,01,16,9.20
2008,04,21,01,17,3.50
2008,04,21,01,18,3.60
2008,04,21,01,19,0.90
2008,04,21,01,20,4.40
2008,04,21,01,21,7.10
2008,04,21,01,22,4.50
2008,04,21,01,23,9.60
2008,04,21,01,24,8.00
2008,04,21,01,25,6.00
2008,04,21,01,26,11.50
2008,04,21,01,27,7.00
2008,04,21,01,28,9.20
2008,04,21,01,29,6.30
2008,04,21,01,30,5.20
2008,04,21,01,31,5.80
2008,04,21,01,32,7.60
2008,04,21,01,33,4.70
2008,04,21,01,34,5.40
2008,04,21,01,35,5.40
2008,04,21,01,36,3.70
2008,04,21,01,37,4.70
2008,04,21,01,38,3.40
2008,04,21,01,39,3.00
2008,04,21,01,40,4.20
2008,04,21,01,41,7.90
2008,04,21,01,42,4.70
2008,04,21,01,43,6.20
2008,04,21,01,44,6.50
2008,04,21,01,45,8.60
2008,04,21,01,46,8.20
2008,04,21,01,47,7.60
2008,04,21,01,48,3.50
2008,04,21,01,49,2.00
2008,04,21,01,50,1.70
2008,04,21,01,51,1.00
2008,04,21,01,52,1.50
2008,04,21,01,53,2.40
2008,04,21,01,54,3.70
2008,04,21,01,55,4.00
2008,04,21,01,56,6.90
2008,04,21,01,57,3.90
2008,04,21,01,58,5.90
2008,04,21,01,59,4.60
2008,04,21,02,00,4.70
2008,04,21,02,01,4.00
2008,04,21,02,02,4.10
2008,04,21,02,03,5.20
2008,04,21,02,04,6.50
2008,04,21,02,05,8.80
2008,04,21,02,06,4.30
2008,04,21,02,07,5.10
2008,04,21,02,08,6.20
2008,04,21,02,09,6.70
2008,04,21,02,10,6.60
2008,04,21,02,11,7.90
2008,04,21,02,12,5.70
2008,04,21,02,13,5.10
2008,04,21,02,14,7.70
2008,04,21,02,15,6.50
2008,04,21,02,16,5.60
2008,04,21,02,17,5.80
2008,04,21,02,18,7.60
2008,04,21,02,19,6.90
2008,04,21,02,20,5.60
2008,04,21,02,21,5.50
2008,04,21,02,22,6.10
2008,04,21,02,23,6.40
2008,04,21,02,24,4.40
2008,04,21,02,25,5.60
2008,04,21,02,26,4.40
2008,04,21,02,27,4.20
2008,04,21,02,28,6.40
2008,04,21,02,29,3.90
2008,04,21,02,30,4.20
2008,04,21,02,31,4.20
2008,04,21,02,32,4.90
2008,04,21,02,33,3.60
2008,04,21,02,34,4.80
2008,04,21,02,35,4.60
2008,04,21,02,36,5.70
2008,04,21,02,37,4.90
2008,04,21,02,38,6.40
2008,04,21,02,39,6.50
2008,04,21,02,40,5.80
2008,04,21,02,41,6.70
2008,04,21,02,42,7.10
2008,04,21,02,43,5.30
2008,04,21,02,44,5.40
2008,04,21,02,45,6.00
2008,04,21,02,46,5.70
2008,04,21,02,47,5.80
2008,04,21,02,48,5.60
2008,04,21,02,49,4.30
2008,04,21,02,50,3.20
2008,04,21,02,51,3.60
2008,04,21,02,52,4.70
2008,04,21,02,53,3.80
2008,04,21,02,54,6.10
2008,04,21,02,55,7.50
2008,04,21,02,56,5.10
2008,04,21,02,57,5.10
2008,04,21,02,58,6.90
2008,04,21,02,59,3.60
2008,04,21,03,00,4.90
2008,04,21,03,01,6.50
2008,04,21,03,02,5.00
2008,04,21,03,03,6.00
2008,04,21,03,04,5.90
2008,04,21,03,05,6.50
2008,04,21,03,06,7.40
2008,04,21,03,07,6.10
2008,04,21,03,08,5.90
2008,04,21,03,09,7.00
2008,04,21,03,10,6.40
2008,04,21,03,11,8.10
2008,04,21,03,12,6.20
2008,04,21,03,13,4.30
2008,04,21,03,14,4.60
2008,04,21,03,15,3.10
2008,04,21,03,16,5.90
2008,04,21,03,17,3.90
2008,04,21,03,18,3.10
2008,04,21,03,19,5.00
2008,04,21,03,20,4.60
2008,04,21,03,21,2.50
2008,04,21,03,22,2.20
2008,04,21,03,23,5.70
2008,04,21,03,24,6.00
2008,04,21,03,25,5.20
2008,04,21,03,26,5.10
2008,04,21,03,27,5.50
2008,04,21,03,28,7.70
2008,04,21,03,29,4.70
2008,04,21,03,30,6.40
2008,04,21,03,31,6.40
2008,04,21,03,32,5.80
2008,04,21,03,33,3.70
2008,04,21,03,34,3.10
2008,04,21,03,35,2.80
2008,04,21,03,36,3.30
2008,04,21,03,37,3.80
2008,04,21,03,38,0.50
2008,04,21,03,39,0.00
2008,04,21,03,40,0.10
2008,04,21,03,41,2.30
2008,04,21,03,42,2.10
2008,04,21,03,43,0.30
2008,04,21,03,44,1.90
2008,04,21,03,45,2.90
2008,04,21,03,46,2.80
2008,04,21,03,47,2.70
2008,04,21,03,48,2.00
2008,04,21,03,49,1.70
2008,04,21,03,50,2.60
2008,04,21,03,51,3.60
2008,04,21,03,52,3.00
2008,04,21,03,53,4.60
2008,04,21,03,54,4.40
2008,04,21,03,55,5.40
2008,04,21,03,56,5.20
2008,04,21,03,57,5.50
2008,04,21,03,58,5.30
2008,04,21,03,59,5.70
2008,04,21,04,00,4.50
2008,04,21,04,01,6.10
2008,04,21,04,02,5.10
2008,04,21,04,03,5.30
2008,04,21,04,04,5.70
2008,04,21,04,05,6.20
2008,04,21,04,06,7.50
2008,04,21,04,07,8.00
2008,04,21,04,08,6.50
2008,04,21,04,09,6.30
2008,04,21,04,10,8.50
2008,04,21,04,11,6.40
2008,04,21,04,12,6.80
2008,04,21,04,13,5.50
2008,04,21,04,14,3.60
2008,04,21,04,15,3.10
2008,04,21,04,16,5.60
2008,04,21,04,17,4.30
2008,04,21,04,18,1.90
2008,04,21,04,19,2.20
2008,04,21,04,20,2.00
2008,04,21,04,21,0.90
2008,04,21,04,22,0.00
2008,04,21,04,23,1.30
2008,04,21,04,24,0.10
2008,04,21,04,25,0.00
2008,04,21,04,26,0.00
2008,04,21,04,27,0.40
2008,04,21,04,28,0.30
2008,04,21,04,29,0.10
2008,04,21,04,30,0.60
2008,04,21,04,31,1.00
2008,04,21,04,32,0.50
2008,04,21,04,33,1.40
2008,04,21,04,34,0.60
2008,04,21,04,35,0.40
2008,04,21,04,36,0.00
2008,04,21,04,37,1.20
2008,04,21,04,38,0.40
2008,04,21,04,39,0.00
2008,04,21,04,40,1.20
2008,04,21,04,41,2.60
2008,04,21,04,42,1.60
2008,04,21,04,43,1.90
2008,04,21,04,44,3.70
2008,04,21,04,45,0.60
2008,04,21,04,46,0.90
2008,04,21,04,47,2.20
2008,04,21,04,48,0.40
2008,04,21,04,49,0.20
2008,04,21,04,50,0.10
2008,04,21,04,51,0.00
2008,04,21,04,52,0.00
2008,04,21,04,53,0.10
2008,04,21,04,54,0.10
2008,04,21,04,55,0.00
2008,04,21,04,56,0.00
2008,04,21,04,57,0.00
2008,04,21,04,58,0.00
2008,04,21,04,59,0.00
2008,04,21,05,00,0.00
2008,04,21,05,01,0.00
2008,04,21,05,02,0.00
2008,04,21,05,03,0.00
2008,04,21,05,04,0.00
2008,04,21,05,05,0.80
2008,04,21,05,06,1.00
2008,04,21,05,07,2.10
2008,04,21,05,08,1.10
2008,04,21,05,09,0.60
2008,04,21,05,10,0.00
2008,04,21,05,11,0.00
2008,04,21,05,12,0.00
2008,04,21,05,13,0.00
2008,04,21,05,14,0.00
2008,04,21,05,15,0.00
2008,04,21,05,16,0.00
2008,04,21,05,17,0.00
2008,04,21,05,18,0.00
2008,04,21,05,19,0.00
2008,04,21,05,20,0.00
2008,04,21,05,21,0.00
2008,04,21,05,22,0.00
2008,04,21,05,23,0.00
2008,04,21,05,24,0.00
2008,04,21,05,25,0.00
2008,04,21,05,26,0.00
2008,04,21,05,27,0.00
2008,04,21,05,28,0.00
2008,04,21,05,29,0.00
2008,04,21,05,30,0.00
2008,04,21,05,31,0.00
2008,04,21,05,32,0.00
2008,04,21,05,33,0.00
2008,04,21,05,34,0.00
2008,04,21,05,35,0.00
2008,04,21,05,36,0.00
2008,04,21,05,37,0.00
2008,04,21,05,38,0.00
2008,04,21,05,39,0.00
2008,04,21,05,40,0.00
2008,04,21,05,41,0.00
2008,04,21,05,42,0.00
2008,04,21,05,43,0.00
2008,04,21,05,44,0.00
2008,04,21,05,45,0.00
2008,04,21,05,46,0.00
2008,04,21,05,47,0.00
2008,04,21,05,48,0.00
2008,04,21,05,49,0.00
2008,04,21,05,50,0.00
2008,04,21,05,51,0.00
2008,04,21,05,52,0.00
2008,04,21,05,53,0.00
2008,04,21,05,54,0.00
2008,04,21,05,55,0.00
2008,04,21,05,56,0.00
2008,04,21,05,57,0.20
2008,04,21,05,58,0.90
2008,04,21,05,59,0.00
2008,04,21,06,00,0.00
2008,04,21,06,01,0.00
2008,04,21,06,02,0.00
2008,04,21,06,03,0.00
2008,04,21,06,04,0.10
2008,04,21,06,05,0.00
2008,04,21,06,06,0.60
2008,04,21,06,07,0.20
2008,04,21,06,08,0.00
2008,04,21,06,09,0.50
2008,04,21,06,10,0.50
2008,04,21,06,11,1.10
2008,04,21,06,12,0.40
2008,04,21,06,13,0.00
2008,04,21,06,14,0.20
2008,04,21,06,15,0.10
2008,04,21,06,16,0.00
2008,04,21,06,17,0.00
2008,04,21,06,18,0.00
2008,04,21,06,19,0.00
2008,04,21,06,20,0.00
2008,04,21,06,21,0.00
2008,04,21,06,22,0.00
2008,04,21,06,23,0.00
2008,04,21,06,24,0.00
2008,04,21,06,25,0.00
2008,04,21,06,26,0.00
2008,04,21,06,27,0.00
2008,04,21,06,28,0.00
2008,04,21,06,29,0.00
2008,04,21,06,30,0.00
2008,04,21,06,31,0.00
2008,04,21,06,32,0.00
2008,04,21,06,33,0.00
2008,04,21,06,34,0.00
2008,04,21,06,35,0.00
2008,04,21,06,36,0.00
2008,04,21,06,37,0.00
2008,04,21,06,38,0.00
2008,04,21,06,39,0.00
2008,04,21,06,40,0.00
2008,04,21,06,41,0.00
2008,04,21,06,42,0.00
2008,04,21,06,43,0.20
2008,04,21,06,44,0.00
2008,04,21,06,45,0.00
2008,04,21,06,46,0.00
2008,04,21,06,47,0.00
2008,04,21,06,48,0.00
2008,04,21,06,49,0.00
2008,04,21,06,50,0.00
2008,04,21,06,51,0.00
2008,04,21,06,52,0.00
2008,04,21,06,53,0.00
2008,04,21,06,54,0.00
2008,04,21,06,55,0.00
2008,04,21,06,56,0.00
2008,04,21,06,57,0.00
2008,04,21,06,58,0.00
2008,04,21,06,59,0.00
2008,04,21,07,00,0.00
2008,04,21,07,01,0.00
2008,04,21,07,02,0.00
2008,04,21,07,03,0.00
2008,04,21,07,04,0.00
2008,04,21,07,05,0.00
2008,04,21,07,06,0.00
2008,04,21,07,07,0.00
2008,04,21,07,08,0.00
2008,04,21,07,09,0.00
2008,04,21,07,10,0.00
2008,04,21,07,11,0.00
2008,04,21,07,12,0.00
2008,04,21,07,13,0.00
2008,04,21,07,14,0.00
2008,04,21,07,15,0.00
2008,04,21,07,16,0.00
2008,04,21,07,17,0.00
2008,04,21,07,18,0.00
2008,04,21,07,19,0.00
2008,04,21,07,20,0.00
2008,04,21,07,21,0.20
2008,04,21,07,22,0.90
2008,04,21,07,23,0.10
2008,04,21,07,24,0.00
2008,04,21,07,25,0.00
2008,04,21,07,26,0.00
2008,04,21,07,27,0.50
2008,04,21,07,28,0.00
2008,04,21,07,29,0.00
2008,04,21,07,30,0.20
2008,04,21,07,31,1.00
2008,04,21,07,32,0.40
2008,04,21,07,33,1.50
2008,04,21,07,34,2.50
2008,04,21,07,35,1.40
2008,04,21,07,36,3.10
2008,04,21,07,37,2.20
2008,04,21,07,38,2.90
2008,04,21,07,39,4.00
2008,04,21,07,40,3.20
2008,04,21,07,41,4.80
2008,04,21,07,42,4.00
2008,04,21,07,43,4.10
2008,04,21,07,44,5.90
2008,04,21,07,45,8.90
2008,04,21,07,46,7.40
2008,04,21,07,47,5.60
2008,04,21,07,48,5.40
2008,04,21,07,49,4.60
2008,04,21,07,50,3.10
2008,04,21,07,51,5.00
2008,04,21,07,52,4.90
2008,04,21,07,53,6.70
2008,04,21,07,54,7.30
2008,04,21,07,55,8.00
2008,04,21,07,56,5.80
2008,04,21,07,57,6.30
2008,04,21,07,58,4.10
2008,04,21,07,59,4.40
2008,04,21,08,00,2.50
2008,04,21,08,01,4.00
2008,04,21,08,02,6.10
2008,04,21,08,03,7.50
2008,04,21,08,04,6.10
2008,04,21,08,05,4.80
2008,04,21,08,06,4.00
2008,04,21,08,07,2.40
2008,04,21,08,08,4.30
2008,04,21,08,09,6.00
2008,04,21,08,10,6.30
2008,04,21,08,11,5.80
2008,04,21,08,12,5.00
2008,04,21,08,13,6.10
2008,04,21,08,14,7.60
2008,04,21,08,15,4.60
2008,04,21,08,16,5.00
2008,04,21,08,17,6.60
2008,04,21,08,18,3.60
2008,04,21,08,19,5.90
2008,04,21,08,20,6.50
2008,04,21,08,21,7.10
2008,04,21,08,22,6.60
2008,04,21,08,23,5.40
2008,04,21,08,24,4.80
2008,04,21,08,25,7.60
2008,04,21,08,26,7.20
2008,04,21,08,27,5.60
2008,04,21,08,28,3.80
2008,04,21,08,29,5.00
2008,04,21,08,30,4.20
2008,04,21,08,31,4.30
2008,04,21,08,32,5.20
2008,04,21,08,33,5.40
2008,04,21,08,34,4.80
2008,04,21,08,35,6.70
2008,04,21,08,36,4.80
2008,04,21,08,37,3.30
2008,04,21,08,38,3.70
2008,04,21,08,39,4.80
2008,04,21,08,40,2.40
2008,04,21,08,41,3.00
2008,04,21,08,42,4.60
2008,04,21,08,43,6.50
2008,04,21,08,44,6.50
2008,04,21,08,45,7.50
2008,04,21,08,46,2.20
2008,04,21,08,47,2.00
2008,04,21,08,48,3.90
2008,04,21,08,49,5.10
2008,04,21,08,50,2.60
2008,04,21,08,51,0.20
2008,04,21,08,52,0.60
2008,04,21,08,53,1.40
2008,04,21,08,54,2.50
2008,04,21,08,55,1.40
2008,04,21,08,56,3.40
2008,04,21,08,57,8.20
2008,04,21,08,58,8.30
2008,04,21,08,59,13.90
2008,04,21,09,00,6.20
2008,04,21,09,01,6.60
2008,04,21,09,02,5.20
2008,04,21,09,03,9.70
2008,04,21,09,04,3.90
2008,04,21,09,05,3.70
2008,04,21,09,06,6.70
2008,04,21,09,07,3.10
2008,04,21,09,08,5.50
2008,04,21,09,09,6.50
2008,04,21,09,10,4.90
2008,04,21,09,11,3.50
2008,04,21,09,12,3.20
2008,04,21,09,13,0.90
2008,04,21,09,14,6.30
2008,04,21,09,15,7.70
2008,04,21,09,16,3.90
2008,04,21,09,17,6.50
2008,04,21,09,18,4.40
2008,04,21,09,19,3.30
2008,04,21,09,20,7.90
2008,04,21,09,21,7.40
2008,04,21,09,22,6.80
2008,04,21,09,23,8.90
2008,04,21,09,24,5.50
2008,04,21,09,25,5.10
2008,04,21,09,26,5.80
2008,04,21,09,27,4.60
2008,04,21,09,28,7.40
2008,04,21,09,29,3.00
2008,04,21,09,30,4.90
2008,04,21,09,31,3.50
2008,04,21,09,32,3.20
2008,04,21,09,33,5.30
2008,04,21,09,34,2.70
2008,04,21,09,35,3.80
2008,04,21,09,36,2.20
2008,04,21,09,37,0.70
2008,04,21,09,38,4.90
2008,04,21,09,39,5.80
2008,04,21,09,40,2.90
2008,04,21,09,41,5.30
2008,04,21,09,42,6.20
2008,04,21,09,43,7.10
2008,04,21,09,44,5.50
2008,04,21,09,45,4.30
2008,04,21,09,46,0.90
2008,04,21,09,47,2.60
2008,04,21,09,48,4.70
2008,04,21,09,49,4.90
2008,04,21,09,50,6.40
2008,04,21,09,51,3.40
2008,04,21,09,52,3.60
2008,04,21,09,53,1.10
2008,04,21,09,54,4.70
2008,04,21,09,55,5.60
2008,04,21,09,56,2.70
2008,04,21,09,57,4.70
2008,04,21,09,58,1.90
2008,04,21,09,59,3.30
2008,04,21,10,00,4.00
2008,04,21,10,01,6.70
2008,04,21,10,02,1.00
2008,04,21,10,03,1.70
2008,04,21,10,04,1.00
2008,04,21,10,05,1.30
2008,04,21,10,06,3.20
2008,04,21,10,07,2.70
2008,04,21,10,08,2.50
2008,04,21,10,09,1.70
2008,04,21,10,10,2.90
2008,04,21,10,11,1.20
2008,04,21,10,12,0.70
2008,04,21,10,13,2.50
2008,04,21,10,14,0.70
2008,04,21,10,15,5.00
2008,04,21,10,16,2.70
2008,04,21,10,17,3.50
2008,04,21,10,18,4.00
2008,04,21,10,19,4.60
2008,04,21,10,20,4.40
2008,04,21,10,21,2.50
2008,04,21,10,22,0.30
2008,04,21,10,23,1.20
2008,04,21,10,24,2.40
2008,04,21,10,25,1.80
2008,04,21,10,26,3.80
2008,04,21,10,27,3.10
2008,04,21,10,28,0.90
2008,04,21,10,29,1.10
2008,04,21,10,30,1.70
2008,04,21,10,31,5.00
2008,04,21,10,32,6.60
2008,04,21,10,33,8.10
2008,04,21,10,34,4.30
2008,04,21,10,35,3.10
2008,04,21,10,36,1.40
2008,04,21,10,37,2.80
2008,04,21,10,38,1.70
2008,04,21,10,39,1.50
2008,04,21,10,40,1.80
2008,04,21,10,41,1.50
2008,04,21,10,42,3.40
2008,04,21,10,43,14.50
2008,04,21,10,44,6.20
2008,04,21,10,45,1.30
2008,04,21,10,46,1.40
2008,04,21,10,47,4.10
2008,04,21,10,48,4.40
2008,04,21,10,49,7.10
2008,04,21,10,50,6.10
2008,04,21,10,51,3.70
2008,04,21,10,52,3.90
2008,04,21,10,53,3.90
2008,04,21,10,54,5.50
2008,04,21,10,55,6.20
2008,04,21,10,56,3.60
2008,04,21,10,57,5.40
2008,04,21,10,58,4.70
2008,04,21,10,59,5.60
2008,04,21,11,00,5.00
2008,04,21,11,01,3.90
2008,04,21,11,02,1.80
2008,04,21,11,03,6.50
2008,04,21,11,04,5.90
2008,04,21,11,05,10.60
2008,04,21,11,06,10.90
2008,04,21,11,07,5.70
2008,04,21,11,08,6.40
2008,04,21,11,09,6.30
2008,04,21,11,10,4.20
2008,04,21,11,11,6.70
2008,04,21,11,12,3.80
2008,04,21,11,13,6.60
2008,04,21,11,14,8.10
2008,04,21,11,15,13.40
2008,04,21,11,16,8.70
2008,04,21,11,17,12.10
2008,04,21,11,18,9.70
2008,04,21,11,19,9.40
2008,04,21,11,20,6.80
2008,04,21,11,21,8.40
2008,04,21,11,22,9.20
2008,04,21,11,23,9.30
2008,04,21,11,24,7.30
2008,04,21,11,25,3.80
2008,04,21,11,26,6.10
2008,04,21,11,27,2.00
2008,04,21,11,28,6.10
2008,04,21,11,29,6.50
2008,04,21,11,30,3.40
2008,04,21,11,31,7.90
2008,04,21,11,32,8.90
2008,04,21,11,33,2.30
2008,04,21,11,34,3.90
2008,04,21,11,35,6.90
2008,04,21,11,36,5.00
2008,04,21,11,37,5.50
2008,04,21,11,38,4.90
2008,04,21,11,39,5.60
2008,04,21,11,40,7.90
2008,04,21,11,41,2.70
2008,04,21,11,42,2.80
2008,04,21,11,43,9.00
2008,04,21,11,44,9.30
2008,04,21,11,45,7.10
2008,04,21,11,46,3.40
2008,04,21,11,47,3.50
2008,04,21,11,48,3.40
2008,04,21,11,49,8.60
2008,04,21,11,50,8.80
2008,04,21,11,51,8.70
2008,04,21,11,52,3.80
2008,04,21,11,53,1.50
2008,04,21,11,54,3.50
2008,04,21,11,55,4.80
2008,04,21,11,56,7.90
2008,04,21,11,57,3.80
2008,04,21,11,58,2.60
2008,04,21,11,59,4.60
2008,04,21,12,00,2.40
2008,04,21,12,01,0.30
2008,04,21,12,02,0.80
2008,04,21,12,03,1.30
2008,04,21,12,04,2.90
2008,04,21,12,05,0.90
2008,04,21,12,06,0.00
2008,04,21,12,07,4.70
2008,04,21,12,08,8.20
2008,04,21,12,09,4.20
2008,04,21,12,10,3.10
2008,04,21,12,11,0.50
2008,04,21,12,12,1.20
2008,04,21,12,13,1.60
2008,04,21,12,14,2.50
2008,04,21,12,15,8.00
2008,04,21,12,16,3.50
2008,04,21,12,17,8.60
2008,04,21,12,18,4.30
2008,04,21,12,19,5.40
2008,04,21,12,20,4.40
2008,04,21,12,21,1.90
2008,04,21,12,22,5.30
2008,04,21,12,23,6.00
2008,04,21,12,24,8.70
2008,04,21,12,25,10.80
2008,04,21,12,26,1.90
2008,04,21,12,27,10.90
2008,04,21,12,28,3.10
2008,04,21,12,29,4.70
2008,04,21,12,30,6.90
2008,04,21,12,31,10.60
2008,04,21,12,32,14.50
2008,04,21,12,33,7.00
2008,04,21,12,34,10.60
2008,04,21,12,35,11.80
2008,04,21,12,36,7.50
2008,04,21,12,37,7.60
2008,04,21,12,38,8.10
2008,04,21,12,39,9.70
2008,04,21,12,40,7.20
2008,04,21,12,41,7.00
2008,04,21,12,42,3.20
2008,04,21,12,43,2.60
2008,04,21,12,44,5.50
2008,04,21,12,45,9.70
2008,04,21,12,46,11.60
2008,04,21,12,47,5.80
2008,04,21,12,48,5.90
2008,04,21,12,49,6.10
2008,04,21,12,50,9.70
2008,04,21,12,51,7.50
2008,04,21,12,52,10.80
2008,04,21,12,53,7.70
2008,04,21,12,54,7.60
2008,04,21,12,55,10.60
2008,04,21,12,56,7.30
2008,04,21,12,57,10.10
2008,04,21,12,58,8.00
2008,04,21,12,59,10.60
2008,04,21,13,00,8.60
2008,04,21,13,01,6.40
2008,04,21,13,02,8.50
2008,04,21,13,03,15.00
2008,04,21,13,04,11.10
2008,04,21,13,05,5.60
2008,04,21,13,06,8.00
2008,04,21,13,07,10.20
2008,04,21,13,08,7.00
2008,04,21,13,09,10.10
2008,04,21,13,10,6.70
2008,04,21,13,11,6.40
2008,04,21,13,12,12.60
2008,04,21,13,13,5.10
2008,04,21,13,14,5.60
2008,04,21,13,15,12.20
2008,04,21,13,16,16.10
2008,04,21,13,17,3.50
2008,04,21,13,18,12.70
2008,04,21,13,19,8.90
2008,04,21,13,20,7.60
2008,04,21,13,21,4.90
2008,04,21,13,22,7.70
2008,04,21,13,23,8.50
2008,04,21,13,24,4.00
2008,04,21,13,25,2.50
2008,04,21,13,26,3.40
2008,04,21,13,27,9.50
2008,04,21,13,28,3.60
2008,04,21,13,29,7.60
2008,04,21,13,30,5.30
2008,04,21,13,31,6.20
2008,04,21,13,32,6.00
2008,04,21,13,33,7.10
2008,04,21,13,34,8.10
2008,04,21,13,35,7.10
2008,04,21,13,36,5.70
2008,04,21,13,37,3.80
2008,04,21,13,38,7.50
2008,04,21,13,39,0.60
2008,04,21,13,40,0.00
2008,04,21,13,41,2.10
2008,04,21,13,42,6.10
2008,04,21,13,43,7.10
2008,04,21,13,44,4.80
2008,04,21,13,45,7.60
2008,04,21,13,46,8.60
2008,04,21,13,47,2.40
2008,04,21,13,48,8.00
2008,04,21,13,49,8.30
2008,04,21,13,50,5.40
2008,04,21,13,51,9.00
2008,04,21,13,52,10.90
2008,04,21,13,53,10.10
2008,04,21,13,54,3.80
2008,04,21,13,55,7.30
2008,04,21,13,56,4.50
2008,04,21,13,57,3.90
2008,04,21,13,58,2.00
2008,04,21,13,59,3.60
2008,04,21,14,00,2.20
2008,04,21,14,01,0.30
2008,04,21,14,02,2.00
2008,04,21,14,03,0.00
2008,04,21,14,04,4.80
2008,04,21,14,05,7.30
2008,04,21,14,06,4.60
2008,04,21,14,07,4.40
2008,04,21,14,08,2.10
2008,04,21,14,09,1.70
2008,04,21,14,10,4.20
2008,04,21,14,11,2.60
2008,04,21,14,12,3.80
2008,04,21,14,13,6.30
2008,04,21,14,14,6.00
2008,04,21,14,15,1.20
2008,04,21,14,16,5.70
2008,04,21,14,17,3.50
2008,04,21,14,18,1.00
2008,04,21,14,19,1.90
2008,04,21,14,20,1.00
2008,04,21,14,21,0.20
2008,04,21,14,22,5.60
2008,04,21,14,23,4.70
2008,04,21,14,24,2.60
2008,04,21,14,25,10.80
2008,04,21,14,26,7.40
2008,04,21,14,27,5.20
2008,04,21,14,28,14.10
2008,04,21,14,29,13.90
2008,04,21,14,30,6.40
2008,04,21,14,31,11.00
2008,04,21,14,32,10.30
2008,04,21,14,33,14.20
2008,04,21,14,34,8.70
2008,04,21,14,35,8.80
2008,04,21,14,36,6.70
2008,04,21,14,37,7.20
2008,04,21,14,38,10.50
2008,04,21,14,39,6.10
2008,04,21,14,40,9.60
2008,04,21,14,41,7.30
2008,04,21,14,42,10.60
2008,04,21,14,43,6.70
2008,04,21,14,44,13.30
2008,04,21,14,45,14.70
2008,04,21,14,46,10.90
2008,04,21,14,47,12.60
2008,04,21,14,48,9.80
2008,04,21,14,49,7.90
2008,04,21,14,50,6.40
2008,04,21,14,51,8.70
2008,04,21,14,52,10.50
2008,04,21,14,53,7.90
2008,04,21,14,54,7.10
2008,04,21,14,55,3.70
2008,04,21,14,56,6.30
2008,04,21,14,57,4.00
2008,04,21,14,58,6.30
2008,04,21,14,59,5.40
2008,04,21,15,00,7.20
2008,04,21,15,01,7.10
2008,04,21,15,02,7.40
2008,04,21,15,03,0.10
2008,04,21,15,04,2.60
2008,04,21,15,05,8.10
2008,04,21,15,06,13.30
2008,04,21,15,07,8.50
2008,04,21,15,08,9.00
2008,04,21,15,09,10.70
2008,04,21,15,10,6.80
2008,04,21,15,11,8.40
2008,04,21,15,12,10.30
2008,04,21,15,13,10.90
2008,04,21,15,14,7.10
2008,04,21,15,15,9.20
2008,04,21,15,16,9.80
2008,04,21,15,17,4.50
2008,04,21,15,18,7.90
2008,04,21,15,19,7.60
2008,04,21,15,20,6.80
2008,04,21,15,21,5.50
2008,04,21,15,22,3.60
2008,04,21,15,23,5.70
2008,04,21,15,24,4.30
2008,04,21,15,25,8.40
2008,04,21,15,26,5.70
2008,04,21,15,27,0.10
2008,04,21,15,28,1.00
2008,04,21,15,29,0.80
2008,04,21,15,30,3.10
2008,04,21,15,31,1.30
2008,04,21,15,32,3.20
2008,04,21,15,33,3.10
2008,04,21,15,34,5.00
2008,04,21,15,35,6.70
2008,04,21,15,36,6.30
2008,04,21,15,37,4.70
2008,04,21,15,38,3.90
2008,04,21,15,39,5.00
2008,04,21,15,40,1.20
2008,04,21,15,41,5.90
2008,04,21,15,42,8.80
2008,04,21,15,43,6.50
2008,04,21,15,44,6.80
2008,04,21,15,45,5.10
2008,04,21,15,46,5.50
2008,04,21,15,47,7.50
2008,04,21,15,48,3.70
2008,04,21,15,49,7.80
2008,04,21,15,50,0.20
2008,04,21,15,51,3.00
2008,04,21,15,52,3.40
2008,04,21,15,53,3.00
2008,04,21,15,54,3.80
2008,04,21,15,55,1.90
2008,04,21,15,56,8.30
2008,04,21,15,57,4.60
2008,04,21,15,58,3.60
2008,04,21,15,59,4.30
2008,04,21,16,00,6.10
2008,04,21,16,01,7.90
2008,04,21,16,02,3.10
2008,04,21,16,03,5.00
2008,04,21,16,04,2.60
2008,04,21,16,05,6.30
2008,04,21,16,06,6.40
2008,04,21,16,07,7.60
2008,04,21,16,08,9.60
2008,04,21,16,09,5.40
2008,04,21,16,10,5.40
2008,04,21,16,11,2.30
2008,04,21,16,12,3.70
2008,04,21,16,13,6.30
2008,04,21,16,14,5.90
2008,04,21,16,15,2.60
2008,04,21,16,16,5.70
2008,04,21,16,17,2.90
2008,04,21,16,18,3.60
2008,04,21,16,19,3.00
2008,04,21,16,20,4.80
2008,04,21,16,21,3.20
2008,04,21,16,22,3.50
2008,04,21,16,23,1.50
2008,04,21,16,24,1.60
2008,04,21,16,25,8.20
2008,04,21,16,26,6.50
2008,04,21,16,27,4.70
2008,04,21,16,28,4.10
2008,04,21,16,29,2.90
2008,04,21,16,30,5.10
2008,04,21,16,31,2.10
2008,04,21,16,32,4.00
2008,04,21,16,33,6.00
2008,04,21,16,34,3.50
2008,04,21,16,35,6.30
2008,04,21,16,36,7.70
2008,04,21,16,37,3.60
2008,04,21,16,38,3.90
2008,04,21,16,39,3.40
2008,04,21,16,40,6.80
2008,04,21,16,41,5.10
2008,04,21,16,42,3.20
2008,04,21,16,43,1.50
2008,04,21,16,44,3.40
2008,04,21,16,45,4.60
2008,04,21,16,46,4.10
2008,04,21,16,47,4.60
2008,04,21,16,48,3.00
2008,04,21,16,49,6.60
2008,04,21,16,50,7.20
2008,04,21,16,51,1.60
2008,04,21,16,52,4.10
2008,04,21,16,53,5.30
2008,04,21,16,54,6.00
2008,04,21,16,55,5.90
2008,04,21,16,56,4.30
2008,04,21,16,57,3.40
2008,04,21,16,58,1.50
2008,04,21,16,59,3.90
2008,04,21,17,00,3.60
2008,04,21,17,01,4.30
2008,04,21,17,02,3.00
2008,04,21,17,03,7.20
2008,04,21,17,04,2.80
2008,04,21,17,05,6.40
2008,04,21,17,06,2.90
2008,04,21,17,07,0.90
2008,04,21,17,08,3.30
2008,04,21,17,09,4.80
2008,04,21,17,10,3.00
2008,04,21,17,11,0.60
2008,04,21,17,12,2.40
2008,04,21,17,13,5.60
2008,04,21,17,14,4.20
2008,04,21,17,15,3.60
2008,04,21,17,16,5.80
2008,04,21,17,17,3.00
2008,04,21,17,18,0.20
2008,04,21,17,19,0.60
2008,04,21,17,20,0.70
2008,04,21,17,21,4.70
2008,04,21,17,22,4.50
2008,04,21,17,23,2.10
2008,04,21,17,24,0.10
2008,04,21,17,25,0.10
2008,04,21,17,26,0.20
2008,04,21,17,27,0.00
2008,04,21,17,28,0.10
2008,04,21,17,29,1.60
2008,04,21,17,30,2.00
2008,04,21,17,31,1.90
2008,04,21,17,32,3.00
2008,04,21,17,33,0.20
2008,04,21,17,34,3.80
2008,04,21,17,35,3.10
2008,04,21,17,36,2.40
2008,04,21,17,37,3.60
2008,04,21,17,38,3.60
2008,04,21,17,39,2.90
2008,04,21,17,40,1.20
2008,04,21,17,41,0.00
2008,04,21,17,42,0.40
2008,04,21,17,43,2.80
2008,04,21,17,44,7.10
2008,04,21,17,45,6.50
2008,04,21,17,46,3.20
2008,04,21,17,47,4.40
2008,04,21,17,48,3.40
2008,04,21,17,49,5.40
2008,04,21,17,50,4.60
2008,04,21,17,51,4.30
2008,04,21,17,52,6.00
2008,04,21,17,53,5.00
2008,04,21,17,54,2.90
2008,04,21,17,55,3.20
2008,04,21,17,56,3.60
2008,04,21,17,57,3.20
2008,04,21,17,58,3.80
2008,04,21,17,59,5.30
2008,04,21,18,00,1.00
2008,04,21,18,01,3.70
2008,04,21,18,02,2.30
2008,04,21,18,03,3.90
2008,04,21,18,04,6.10